Year,Month,Day,Hour,Minute,Value (Times are PST for windgust in km/hr)
2015,08,30,00,01,1.60
2015,08,30,00,02,3.20
2015,08,30,00,03,1.60
2015,08,30,00,14,1.60
2015,08,30,00,17,3.20
2015,08,30,00,18,3.20
2015,08,30,00,19,3.20
2015,08,30,00,26,1.60
2015,08,30,00,33,1.60
2015,08,30,00,34,3.20
2015,08,30,00,35,3.20
2015,08,30,00,36,4.80
2015,08,30,00,37,6.40
2015,08,30,00,38,4.80
2015,08,30,00,39,4.80
2015,08,30,00,40,4.80
2015,08,30,00,41,1.60
2015,08,30,00,43,3.20
2015,08,30,00,44,8.10
2015,08,30,00,45,9.60
2015,08,30,00,46,8.10
2015,08,30,00,47,6.40
2015,08,30,00,48,8.10
2015,08,30,00,49,9.60
2015,08,30,00,50,11.30
2015,08,30,00,51,3.20
2015,08,30,00,52,6.40
2015,08,30,00,53,8.10
2015,08,30,00,54,8.10
2015,08,30,00,55,8.10
2015,08,30,00,56,4.80
2015,08,30,00,57,6.40
2015,08,30,00,58,8.10
2015,08,30,00,59,4.80
2015,08,30,01,00,6.40
2015,08,30,01,01,8.10
2015,08,30,01,02,8.10
2015,08,30,01,03,9.60
2015,08,30,01,04,4.80
2015,08,30,01,05,9.60
2015,08,30,01,07,9.60
2015,08,30,01,08,1.60
2015,08,30,01,09,8.10
2015,08,30,01,10,8.10
2015,08,30,01,11,9.60
2015,08,30,01,12,14.50
2015,08,30,01,13,4.80
2015,08,30,01,14,14.50
2015,08,30,01,15,9.60
2015,08,30,01,16,4.80
2015,08,30,01,17,4.80
2015,08,30,01,18,11.30
2015,08,30,01,19,11.30
2015,08,30,01,20,8.10
2015,08,30,01,21,8.10
2015,08,30,01,22,9.60
2015,08,30,01,23,8.10
2015,08,30,01,24,8.10
2015,08,30,01,25,8.10
2015,08,30,01,26,6.40
2015,08,30,01,27,4.80
2015,08,30,01,28,4.80
2015,08,30,01,29,4.80
2015,08,30,01,32,1.60
2015,08,30,01,34,4.80
2015,08,30,01,52,4.80
2015,08,30,01,53,4.80
2015,08,30,01,54,4.80
2015,08,30,01,55,6.40
2015,08,30,01,56,6.40
2015,08,30,01,57,6.40
2015,08,30,01,58,8.10
2015,08,30,01,59,4.80
2015,08,30,02,01,1.60
2015,08,30,02,03,4.80
2015,08,30,02,04,4.80
2015,08,30,02,05,4.80
2015,08,30,02,06,3.20
2015,08,30,02,07,4.80
2015,08,30,02,11,4.80
2015,08,30,02,12,1.60
2015,08,30,02,16,1.60
2015,08,30,02,21,4.80
2015,08,30,02,22,4.80
2015,08,30,02,23,3.20
2015,08,30,02,24,1.60
2015,08,30,02,25,4.80
2015,08,30,02,26,3.20
2015,08,30,02,27,4.80
2015,08,30,02,28,3.20
2015,08,30,02,30,1.60
2015,08,30,02,31,6.40
2015,08,30,02,32,6.40
2015,08,30,02,33,6.40
2015,08,30,02,34,1.60
2015,08,30,02,35,6.40
2015,08,30,02,36,4.80
2015,08,30,02,37,4.80
2015,08,30,02,38,6.40
2015,08,30,03,03,1.60
2015,08,30,03,04,3.20
2015,08,30,03,05,3.20
2015,08,30,03,06,1.60
2015,08,30,03,10,3.20
2015,08,30,03,11,3.20
2015,08,30,03,12,3.20
2015,08,30,03,28,3.20
2015,08,30,03,29,1.60
2015,08,30,03,30,3.20
2015,08,30,03,31,1.60
2015,08,30,03,36,4.80
2015,08,30,03,37,1.60
2015,08,30,03,38,6.40
2015,08,30,03,39,4.80
2015,08,30,03,44,3.20
2015,08,30,03,46,3.20
2015,08,30,03,47,4.80
2015,08,30,03,48,3.20
2015,08,30,03,49,3.20
2015,08,30,03,50,6.40
2015,08,30,03,51,6.40
2015,08,30,03,52,4.80
2015,08,30,03,55,4.80
2015,08,30,03,56,6.40
2015,08,30,03,57,6.40
2015,08,30,03,58,6.40
2015,08,30,03,59,4.80
2015,08,30,04,00,4.80
2015,08,30,04,01,4.80
2015,08,30,04,02,8.10
2015,08,30,04,03,9.60
2015,08,30,04,04,8.10
2015,08,30,04,05,4.80
2015,08,30,04,06,3.20
2015,08,30,04,09,6.40
2015,08,30,04,10,4.80
2015,08,30,04,11,3.20
2015,08,30,04,13,6.40
2015,08,30,04,16,8.10
2015,08,30,04,17,3.20
2015,08,30,04,22,1.60
2015,08,30,04,26,4.80
2015,08,30,04,29,3.20
2015,08,30,04,30,3.20
2015,08,30,04,34,6.40
2015,08,30,04,35,4.80
2015,08,30,04,36,1.60
2015,08,30,04,39,6.40
2015,08,30,04,40,6.40
2015,08,30,04,41,4.80
2015,08,30,04,42,4.80
2015,08,30,05,00,1.60
2015,08,30,05,04,3.20
2015,08,30,05,05,4.80
2015,08,30,05,09,4.80
2015,08,30,05,10,3.20
2015,08,30,05,11,8.10
2015,08,30,05,12,6.40
2015,08,30,05,13,4.80
2015,08,30,05,16,1.60
2015,08,30,05,18,1.60
2015,08,30,05,19,6.40
2015,08,30,05,21,1.60
2015,08,30,05,30,3.20
2015,08,30,05,31,4.80
2015,08,30,05,32,4.80
2015,08,30,05,33,3.20
2015,08,30,05,34,3.20
2015,08,30,05,39,3.20
2015,08,30,05,41,4.80
2015,08,30,05,42,3.20
2015,08,30,05,43,1.60
2015,08,30,05,45,1.60
2015,08,30,05,47,1.60
2015,08,30,05,48,4.80
2015,08,30,05,49,3.20
2015,08,30,05,51,4.80
2015,08,30,05,52,1.60
2015,08,30,05,54,1.60
2015,08,30,05,55,6.40
2015,08,30,05,56,8.10
2015,08,30,05,57,4.80
2015,08,30,05,58,8.10
2015,08,30,05,59,4.80
2015,08,30,06,00,6.40
2015,08,30,06,01,6.40
2015,08,30,06,03,3.20
2015,08,30,06,04,4.80
2015,08,30,06,05,3.20
2015,08,30,06,06,1.60
2015,08,30,06,07,9.60
2015,08,30,06,08,6.40
2015,08,30,06,09,6.40
2015,08,30,06,10,4.80
2015,08,30,06,12,8.10
2015,08,30,06,13,6.40
2015,08,30,06,14,4.80
2015,08,30,06,15,12.90
2015,08,30,06,16,8.10
2015,08,30,06,17,11.30
2015,08,30,06,18,6.40
2015,08,30,06,19,8.10
2015,08,30,06,20,8.10
2015,08,30,06,21,4.80
2015,08,30,06,23,8.10
2015,08,30,06,24,3.20
2015,08,30,06,25,6.40
2015,08,30,06,26,9.60
2015,08,30,06,27,11.30
2015,08,30,06,28,9.60
2015,08,30,06,29,6.40
2015,08,30,06,30,4.80
2015,08,30,06,31,1.60
2015,08,30,06,32,8.10
2015,08,30,06,33,6.40
2015,08,30,06,34,11.30
2015,08,30,06,35,9.60
2015,08,30,06,36,6.40
2015,08,30,06,37,9.60
2015,08,30,06,38,9.60
2015,08,30,06,39,9.60
2015,08,30,06,40,6.40
2015,08,30,06,41,8.10
2015,08,30,06,42,4.80
2015,08,30,06,43,1.60
2015,08,30,06,44,9.60
2015,08,30,06,45,17.70
2015,08,30,06,46,17.70
2015,08,30,06,47,9.60
2015,08,30,06,48,8.10
2015,08,30,06,49,8.10
2015,08,30,06,50,11.30
2015,08,30,06,51,14.50
2015,08,30,06,52,8.10
2015,08,30,06,53,9.60
2015,08,30,06,54,9.60
2015,08,30,06,55,3.20
2015,08,30,06,56,9.60
2015,08,30,06,57,11.30
2015,08,30,06,58,4.80
2015,08,30,07,00,9.60
2015,08,30,07,01,8.10
2015,08,30,07,06,6.40
2015,08,30,07,07,4.80
2015,08,30,07,08,4.80
2015,08,30,07,10,6.40
2015,08,30,07,11,8.10
2015,08,30,07,12,8.10
2015,08,30,07,13,8.10
2015,08,30,07,14,6.40
2015,08,30,07,15,8.10
2015,08,30,07,16,6.40
2015,08,30,07,17,3.20
2015,08,30,07,19,4.80
2015,08,30,07,20,8.10
2015,08,30,07,21,9.60
2015,08,30,07,22,11.30
2015,08,30,07,23,8.10
2015,08,30,07,24,8.10
2015,08,30,07,25,6.40
2015,08,30,07,26,6.40
2015,08,30,07,27,3.20
2015,08,30,07,28,12.90
2015,08,30,07,29,11.30
2015,08,30,07,30,9.60
2015,08,30,07,31,6.40
2015,08,30,07,32,6.40
2015,08,30,07,33,3.20
2015,08,30,07,34,6.40
2015,08,30,07,35,6.40
2015,08,30,07,36,9.60
2015,08,30,07,37,6.40
2015,08,30,07,38,9.60
2015,08,30,07,39,4.80
2015,08,30,07,40,8.10
2015,08,30,07,41,6.40
2015,08,30,07,42,9.60
2015,08,30,07,43,9.60
2015,08,30,07,44,9.60
2015,08,30,07,45,8.10
2015,08,30,07,46,14.50
2015,08,30,07,47,11.30
2015,08,30,07,50,1.60
2015,08,30,07,51,6.40
2015,08,30,07,53,3.20
2015,08,30,07,57,3.20
2015,08,30,07,58,6.40
2015,08,30,07,59,4.80
2015,08,30,08,00,9.60
2015,08,30,08,02,4.80
2015,08,30,08,03,4.80
2015,08,30,08,05,8.10
2015,08,30,08,06,3.20
2015,08,30,08,08,8.10
2015,08,30,08,10,4.80
2015,08,30,08,11,8.10
2015,08,30,08,12,6.40
2015,08,30,08,13,11.30
2015,08,30,08,14,8.10
2015,08,30,08,15,6.40
2015,08,30,08,17,6.40
2015,08,30,08,18,11.30
2015,08,30,08,19,9.60
2015,08,30,08,20,6.40
2015,08,30,08,21,1.60
2015,08,30,08,22,1.60
2015,08,30,08,23,4.80
2015,08,30,08,24,4.80
2015,08,30,08,25,6.40
2015,08,30,08,26,8.10
2015,08,30,08,27,14.50
2015,08,30,08,28,6.40
2015,08,30,08,29,4.80
2015,08,30,08,34,4.80
2015,08,30,08,35,8.10
2015,08,30,08,36,3.20
2015,08,30,08,37,6.40
2015,08,30,08,38,6.40
2015,08,30,08,39,1.60
2015,08,30,08,43,6.40
2015,08,30,08,44,6.40
2015,08,30,08,45,4.80
2015,08,30,08,46,4.80
2015,08,30,08,47,3.20
2015,08,30,08,48,1.60
2015,08,30,08,49,8.10
2015,08,30,08,50,8.10
2015,08,30,08,51,8.10
2015,08,30,08,52,8.10
2015,08,30,08,53,3.20
2015,08,30,08,55,3.20
2015,08,30,08,56,6.40
2015,08,30,08,57,6.40
2015,08,30,08,58,6.40
2015,08,30,08,59,9.60
2015,08,30,09,00,6.40
2015,08,30,09,01,4.80
2015,08,30,09,02,8.10
2015,08,30,09,03,4.80
2015,08,30,09,05,6.40
2015,08,30,09,06,1.60
2015,08,30,09,08,4.80
2015,08,30,09,09,3.20
2015,08,30,09,10,6.40
2015,08,30,09,11,11.30
2015,08,30,09,12,1.60
2015,08,30,09,13,6.40
2015,08,30,09,14,11.30
2015,08,30,09,15,9.60
2015,08,30,09,16,14.50
2015,08,30,09,17,11.30
2015,08,30,09,18,6.40
2015,08,30,09,19,9.60
2015,08,30,09,20,8.10
2015,08,30,09,21,9.60
2015,08,30,09,22,8.10
2015,08,30,09,23,9.60
2015,08,30,09,24,9.60
2015,08,30,09,25,11.30
2015,08,30,09,26,12.90
2015,08,30,09,27,14.50
2015,08,30,09,28,8.10
2015,08,30,09,29,6.40
2015,08,30,09,30,6.40
2015,08,30,09,31,11.30
2015,08,30,09,32,17.70
2015,08,30,09,33,9.60
2015,08,30,09,34,3.20
2015,08,30,09,35,14.50
2015,08,30,09,36,12.90
2015,08,30,09,38,3.20
2015,08,30,09,40,9.60
2015,08,30,09,41,4.80
2015,08,30,09,42,12.90
2015,08,30,09,43,11.30
2015,08,30,09,44,9.60
2015,08,30,09,45,8.10
2015,08,30,09,46,9.60
2015,08,30,09,47,6.40
2015,08,30,09,48,8.10
2015,08,30,09,49,9.60
2015,08,30,09,50,19.30
2015,08,30,09,51,14.50
2015,08,30,09,52,12.90
2015,08,30,09,53,14.50
2015,08,30,09,54,17.70
2015,08,30,09,55,16.10
2015,08,30,09,56,11.30
2015,08,30,09,57,14.50
2015,08,30,09,58,16.10
2015,08,30,09,59,19.30
2015,08,30,10,00,12.90
2015,08,30,10,01,1.60
2015,08,30,10,02,9.60
2015,08,30,10,04,11.30
2015,08,30,10,05,16.10
2015,08,30,10,06,9.60
2015,08,30,10,07,9.60
2015,08,30,10,08,6.40
2015,08,30,10,09,9.60
2015,08,30,10,10,9.60
2015,08,30,10,11,6.40
2015,08,30,10,12,16.10
2015,08,30,10,13,11.30
2015,08,30,10,14,16.10
2015,08,30,10,15,17.70
2015,08,30,10,16,12.90
2015,08,30,10,17,11.30
2015,08,30,10,18,16.10
2015,08,30,10,19,14.50
2015,08,30,10,20,4.80
2015,08,30,10,21,9.60
2015,08,30,10,22,9.60
2015,08,30,10,23,8.10
2015,08,30,10,24,11.30
2015,08,30,10,25,14.50
2015,08,30,10,26,11.30
2015,08,30,10,27,14.50
2015,08,30,10,28,14.50
2015,08,30,10,29,16.10
2015,08,30,10,30,16.10
2015,08,30,10,31,8.10
2015,08,30,10,32,9.60
2015,08,30,10,33,8.10
2015,08,30,10,34,12.90
2015,08,30,10,35,9.60
2015,08,30,10,36,8.10
2015,08,30,10,37,14.50
2015,08,30,10,38,9.60
2015,08,30,10,39,9.60
2015,08,30,10,40,11.30
2015,08,30,10,41,6.40
2015,08,30,10,42,8.10
2015,08,30,10,43,14.50
2015,08,30,10,44,11.30
2015,08,30,10,45,14.50
2015,08,30,10,46,16.10
2015,08,30,10,47,9.60
2015,08,30,10,48,17.70
2015,08,30,10,49,19.30
2015,08,30,10,50,17.70
2015,08,30,10,51,11.30
2015,08,30,10,52,16.10
2015,08,30,10,53,16.10
2015,08,30,10,54,9.60
2015,08,30,10,55,9.60
2015,08,30,10,56,3.20
2015,08,30,10,57,16.10
2015,08,30,10,58,16.10
2015,08,30,10,59,11.30
2015,08,30,11,00,14.50
2015,08,30,11,01,16.10
2015,08,30,11,02,19.30
2015,08,30,11,03,16.10
2015,08,30,11,04,14.50
2015,08,30,11,05,11.30
2015,08,30,11,06,9.60
2015,08,30,11,07,9.60
2015,08,30,11,08,11.30
2015,08,30,11,09,11.30
2015,08,30,11,10,11.30
2015,08,30,11,11,8.10
2015,08,30,11,12,8.10
2015,08,30,11,13,8.10
2015,08,30,11,14,6.40
2015,08,30,11,16,20.90
2015,08,30,11,17,19.30
2015,08,30,11,18,8.10
2015,08,30,11,19,11.30
2015,08,30,11,20,9.60
2015,08,30,11,21,11.30
2015,08,30,11,22,4.80
2015,08,30,11,23,12.90
2015,08,30,11,24,9.60
2015,08,30,11,25,17.70
2015,08,30,11,26,17.70
2015,08,30,11,27,12.90
2015,08,30,11,28,16.10
2015,08,30,11,29,9.60
2015,08,30,11,30,8.10
2015,08,30,11,31,6.40
2015,08,30,11,32,6.40
2015,08,30,11,33,9.60
2015,08,30,11,34,16.10
2015,08,30,11,35,19.30
2015,08,30,11,36,17.70
2015,08,30,11,37,19.30
2015,08,30,11,38,19.30
2015,08,30,11,39,20.90
2015,08,30,11,40,19.30
2015,08,30,11,41,17.70
2015,08,30,11,42,16.10
2015,08,30,11,43,14.50
2015,08,30,11,44,16.10
2015,08,30,11,45,6.40
2015,08,30,11,46,14.50
2015,08,30,11,47,11.30
2015,08,30,11,48,11.30
2015,08,30,11,49,12.90
2015,08,30,11,50,14.50
2015,08,30,11,51,20.90
2015,08,30,11,52,11.30
2015,08,30,11,53,20.90
2015,08,30,11,54,16.10
2015,08,30,11,55,16.10
2015,08,30,11,56,16.10
2015,08,30,11,57,19.30
2015,08,30,11,58,16.10
2015,08,30,11,59,16.10
2015,08,30,12,00,12.90
2015,08,30,12,01,16.10
2015,08,30,12,02,11.30
2015,08,30,12,03,8.10
2015,08,30,12,04,9.60
2015,08,30,12,05,11.30
2015,08,30,12,06,11.30
2015,08,30,12,07,11.30
2015,08,30,12,08,11.30
2015,08,30,12,09,9.60
2015,08,30,12,10,16.10
2015,08,30,12,11,17.70
2015,08,30,12,12,17.70
2015,08,30,12,13,17.70
2015,08,30,12,14,9.60
2015,08,30,12,15,9.60
2015,08,30,12,16,17.70
2015,08,30,12,17,16.10
2015,08,30,12,18,11.30
2015,08,30,12,19,9.60
2015,08,30,12,20,11.30
2015,08,30,12,21,20.90
2015,08,30,12,22,16.10
2015,08,30,12,23,16.10
2015,08,30,12,24,11.30
2015,08,30,12,25,14.50
2015,08,30,12,26,9.60
2015,08,30,12,27,14.50
2015,08,30,12,28,19.30
2015,08,30,12,29,20.90
2015,08,30,12,30,20.90
2015,08,30,12,31,9.60
2015,08,30,12,32,8.10
2015,08,30,12,33,16.10
2015,08,30,12,34,20.90
2015,08,30,12,35,17.70
2015,08,30,12,36,11.30
2015,08,30,12,37,9.60
2015,08,30,12,38,8.10
2015,08,30,12,39,11.30
2015,08,30,12,40,12.90
2015,08,30,12,41,16.10
2015,08,30,12,42,19.30
2015,08,30,12,43,12.90
2015,08,30,12,44,9.60
2015,08,30,12,45,9.60
2015,08,30,12,46,19.30
2015,08,30,12,47,11.30
2015,08,30,12,48,17.70
2015,08,30,12,49,16.10
2015,08,30,12,50,19.30
2015,08,30,12,51,17.70
2015,08,30,12,52,20.90
2015,08,30,12,53,16.10
2015,08,30,12,54,17.70
2015,08,30,12,55,14.50
2015,08,30,12,56,20.90
2015,08,30,12,57,17.70
2015,08,30,12,58,22.50
2015,08,30,12,59,16.10
2015,08,30,13,00,19.30
2015,08,30,13,01,19.30
2015,08,30,13,02,20.90
2015,08,30,13,03,17.70
2015,08,30,13,04,17.70
2015,08,30,13,05,20.90
2015,08,30,13,06,11.30
2015,08,30,13,07,16.10
2015,08,30,13,08,20.90
2015,08,30,13,09,17.70
2015,08,30,13,10,9.60
2015,08,30,13,11,17.70
2015,08,30,13,12,16.10
2015,08,30,13,13,19.30
2015,08,30,13,14,11.30
2015,08,30,13,15,9.60
2015,08,30,13,16,16.10
2015,08,30,13,17,11.30
2015,08,30,13,18,19.30
2015,08,30,13,19,20.90
2015,08,30,13,20,16.10
2015,08,30,13,21,16.10
2015,08,30,13,22,11.30
2015,08,30,13,23,8.10
2015,08,30,13,24,22.50
2015,08,30,13,25,17.70
2015,08,30,13,26,16.10
2015,08,30,13,27,14.50
2015,08,30,13,28,17.70
2015,08,30,13,29,16.10
2015,08,30,13,30,17.70
2015,08,30,13,31,19.30
2015,08,30,13,32,19.30
2015,08,30,13,33,20.90
2015,08,30,13,34,17.70
2015,08,30,13,35,16.10
2015,08,30,13,36,11.30
2015,08,30,13,37,16.10
2015,08,30,13,38,14.50
2015,08,30,13,39,16.10
2015,08,30,13,40,16.10
2015,08,30,13,41,11.30
2015,08,30,13,42,22.50
2015,08,30,13,43,20.90
2015,08,30,13,44,19.30
2015,08,30,13,45,16.10
2015,08,30,13,46,17.70
2015,08,30,13,47,17.70
2015,08,30,13,48,14.50
2015,08,30,13,49,19.30
2015,08,30,13,50,14.50
2015,08,30,13,51,17.70
2015,08,30,13,52,19.30
2015,08,30,13,53,19.30
2015,08,30,13,54,16.10
2015,08,30,13,55,16.10
2015,08,30,13,56,20.90
2015,08,30,13,57,20.90
2015,08,30,13,58,20.90
2015,08,30,13,59,24.20
2015,08,30,14,00,22.50
2015,08,30,14,01,17.70
2015,08,30,14,02,19.30
2015,08,30,14,03,16.10
2015,08,30,14,04,17.70
2015,08,30,14,05,17.70
2015,08,30,14,06,20.90
2015,08,30,14,07,22.50
2015,08,30,14,08,20.90
2015,08,30,14,09,24.20
2015,08,30,14,10,22.50
2015,08,30,14,11,20.90
2015,08,30,14,12,24.20
2015,08,30,14,13,19.30
2015,08,30,14,14,17.70
2015,08,30,14,15,11.30
2015,08,30,14,16,11.30
2015,08,30,14,17,8.10
2015,08,30,14,18,20.90
2015,08,30,14,19,17.70
2015,08,30,14,20,17.70
2015,08,30,14,21,16.10
2015,08,30,14,22,9.60
2015,08,30,14,23,9.60
2015,08,30,14,24,19.30
2015,08,30,14,25,6.40
2015,08,30,14,26,19.30
2015,08,30,14,27,19.30
2015,08,30,14,28,20.90
2015,08,30,14,29,22.50
2015,08,30,14,30,20.90
2015,08,30,14,31,20.90
2015,08,30,14,32,11.30
2015,08,30,14,33,19.30
2015,08,30,14,34,9.60
2015,08,30,14,35,22.50
2015,08,30,14,36,19.30
2015,08,30,14,37,25.70
2015,08,30,14,38,24.20
2015,08,30,14,39,19.30
2015,08,30,14,40,22.50
2015,08,30,14,41,12.90
2015,08,30,14,42,20.90
2015,08,30,14,43,17.70
2015,08,30,14,44,24.20
2015,08,30,14,45,20.90
2015,08,30,14,46,17.70
2015,08,30,14,47,14.50
2015,08,30,14,48,24.20
2015,08,30,14,49,19.30
2015,08,30,14,50,19.30
2015,08,30,14,51,19.30
2015,08,30,14,52,20.90
2015,08,30,14,53,16.10
2015,08,30,14,54,19.30
2015,08,30,14,55,22.50
2015,08,30,14,56,19.30
2015,08,30,14,57,14.50
2015,08,30,14,58,19.30
2015,08,30,14,59,20.90
2015,08,30,15,00,17.70
2015,08,30,15,01,20.90
2015,08,30,15,02,20.90
2015,08,30,15,03,20.90
2015,08,30,15,04,22.50
2015,08,30,15,05,22.50
2015,08,30,15,06,14.50
2015,08,30,15,07,14.50
2015,08,30,15,08,19.30
2015,08,30,15,09,24.20
2015,08,30,15,10,24.20
2015,08,30,15,11,19.30
2015,08,30,15,12,22.50
2015,08,30,15,13,20.90
2015,08,30,15,14,17.70
2015,08,30,15,15,19.30
2015,08,30,15,16,20.90
2015,08,30,15,17,19.30
2015,08,30,15,18,17.70
2015,08,30,15,19,20.90
2015,08,30,15,20,14.50
2015,08,30,15,21,20.90
2015,08,30,15,22,19.30
2015,08,30,15,23,14.50
2015,08,30,15,24,16.10
2015,08,30,15,25,14.50
2015,08,30,15,26,14.50
2015,08,30,15,27,16.10
2015,08,30,15,28,14.50
2015,08,30,15,29,16.10
2015,08,30,15,30,19.30
2015,08,30,15,31,9.60
2015,08,30,15,32,17.70
2015,08,30,15,33,14.50
2015,08,30,15,34,9.60
2015,08,30,15,35,11.30
2015,08,30,15,36,8.10
2015,08,30,15,37,14.50
2015,08,30,15,38,19.30
2015,08,30,15,39,19.30
2015,08,30,15,40,16.10
2015,08,30,15,41,22.50
2015,08,30,15,42,22.50
2015,08,30,15,43,8.10
2015,08,30,15,44,11.30
2015,08,30,15,45,11.30
2015,08,30,15,46,16.10
2015,08,30,15,47,14.50
2015,08,30,15,48,16.10
2015,08,30,15,49,14.50
2015,08,30,15,50,16.10
2015,08,30,15,51,16.10
2015,08,30,15,52,17.70
2015,08,30,15,53,16.10
2015,08,30,15,54,16.10
2015,08,30,15,55,16.10
2015,08,30,15,56,11.30
2015,08,30,15,57,20.90
2015,08,30,15,58,19.30
2015,08,30,15,59,16.10
2015,08,30,16,00,17.70
2015,08,30,16,01,8.10
2015,08,30,16,02,11.30
2015,08,30,16,03,14.50
2015,08,30,16,04,17.70
2015,08,30,16,05,19.30
2015,08,30,16,06,14.50
2015,08,30,16,07,16.10
2015,08,30,16,08,11.30
2015,08,30,16,09,14.50
2015,08,30,16,10,19.30
2015,08,30,16,11,17.70
2015,08,30,16,12,20.90
2015,08,30,16,13,11.30
2015,08,30,16,14,17.70
2015,08,30,16,15,8.10
2015,08,30,16,16,11.30
2015,08,30,16,17,16.10
2015,08,30,16,18,11.30
2015,08,30,16,19,22.50
2015,08,30,16,20,14.50
2015,08,30,16,21,17.70
2015,08,30,16,22,20.90
2015,08,30,16,23,17.70
2015,08,30,16,24,19.30
2015,08,30,16,25,16.10
2015,08,30,16,26,20.90
2015,08,30,16,27,25.70
2015,08,30,16,28,19.30
2015,08,30,16,29,14.50
2015,08,30,16,30,11.30
2015,08,30,16,31,16.10
2015,08,30,16,32,16.10
2015,08,30,16,33,6.40
2015,08,30,16,34,9.60
2015,08,30,16,35,16.10
2015,08,30,16,36,6.40
2015,08,30,16,37,9.60
2015,08,30,16,38,14.50
2015,08,30,16,39,12.90
2015,08,30,16,40,11.30
2015,08,30,16,41,11.30
2015,08,30,16,42,16.10
2015,08,30,16,43,20.90
2015,08,30,16,44,20.90
2015,08,30,16,45,8.10
2015,08,30,16,46,6.40
2015,08,30,16,47,9.60
2015,08,30,16,48,8.10
2015,08,30,16,49,6.40
2015,08,30,16,50,9.60
2015,08,30,16,51,12.90
2015,08,30,16,52,8.10
2015,08,30,16,53,14.50
2015,08,30,16,54,19.30
2015,08,30,16,55,14.50
2015,08,30,16,56,16.10
2015,08,30,16,57,19.30
2015,08,30,16,58,11.30
2015,08,30,16,59,11.30
2015,08,30,17,00,8.10
2015,08,30,17,01,9.60
2015,08,30,17,03,4.80
2015,08,30,17,04,11.30
2015,08,30,17,05,9.60
2015,08,30,17,06,11.30
2015,08,30,17,07,8.10
2015,08,30,17,08,11.30
2015,08,30,17,09,8.10
2015,08,30,17,10,9.60
2015,08,30,17,11,6.40
2015,08,30,17,12,11.30
2015,08,30,17,13,9.60
2015,08,30,17,14,6.40
2015,08,30,17,15,12.90
2015,08,30,17,16,9.60
2015,08,30,17,17,9.60
2015,08,30,17,18,11.30
2015,08,30,17,19,8.10
2015,08,30,17,20,16.10
2015,08,30,17,21,19.30
2015,08,30,17,22,9.60
2015,08,30,17,23,11.30
2015,08,30,17,24,9.60
2015,08,30,17,25,12.90
2015,08,30,17,26,19.30
2015,08,30,17,27,4.80
2015,08,30,17,28,6.40
2015,08,30,17,29,14.50
2015,08,30,17,30,6.40
2015,08,30,17,31,17.70
2015,08,30,17,32,11.30
2015,08,30,17,33,8.10
2015,08,30,17,34,14.50
2015,08,30,17,35,12.90
2015,08,30,17,36,8.10
2015,08,30,17,37,6.40
2015,08,30,17,38,8.10
2015,08,30,17,39,6.40
2015,08,30,17,40,8.10
2015,08,30,17,41,14.50
2015,08,30,17,42,9.60
2015,08,30,17,43,3.20
2015,08,30,17,44,4.80
2015,08,30,17,45,4.80
2015,08,30,17,46,8.10
2015,08,30,17,47,6.40
2015,08,30,17,48,4.80
2015,08,30,17,49,3.20
2015,08,30,17,51,8.10
2015,08,30,17,52,11.30
2015,08,30,17,53,9.60
2015,08,30,17,54,8.10
2015,08,30,17,55,9.60
2015,08,30,17,56,9.60
2015,08,30,17,57,8.10
2015,08,30,17,58,4.80
2015,08,30,17,59,1.60
2015,08,30,18,00,8.10
2015,08,30,18,01,8.10
2015,08,30,18,02,6.40
2015,08,30,18,03,6.40
2015,08,30,18,04,9.60
2015,08,30,18,05,11.30
2015,08,30,18,06,8.10
2015,08,30,18,07,16.10
2015,08,30,18,08,11.30
2015,08,30,18,09,16.10
2015,08,30,18,10,6.40
2015,08,30,18,11,11.30
2015,08,30,18,12,9.60
2015,08,30,18,13,6.40
2015,08,30,18,14,6.40
2015,08,30,18,15,4.80
2015,08,30,18,16,1.60
2015,08,30,18,17,6.40
2015,08,30,18,19,6.40
2015,08,30,18,20,3.20
2015,08,30,18,22,4.80
2015,08,30,18,24,6.40
2015,08,30,18,25,8.10
2015,08,30,18,26,11.30
2015,08,30,18,27,11.30
2015,08,30,18,28,8.10
2015,08,30,18,29,6.40
2015,08,30,18,30,8.10
2015,08,30,18,31,3.20
2015,08,30,18,32,6.40
2015,08,30,18,33,22.50
2015,08,30,18,34,8.10
2015,08,30,18,35,14.50
2015,08,30,18,36,19.30
2015,08,30,18,37,17.70
2015,08,30,18,38,16.10
2015,08,30,18,39,9.60
2015,08,30,18,40,8.10
2015,08,30,18,41,12.90
2015,08,30,18,42,6.40
2015,08,30,18,43,11.30
2015,08,30,18,44,6.40
2015,08,30,18,45,6.40
2015,08,30,18,49,8.10
2015,08,30,18,50,6.40
2015,08,30,18,51,4.80
2015,08,30,18,52,4.80
2015,08,30,18,53,3.20
2015,08,30,18,56,6.40
2015,08,30,18,57,9.60
2015,08,30,18,58,11.30
2015,08,30,18,59,8.10
2015,08,30,19,00,19.30
2015,08,30,19,01,17.70
2015,08,30,19,02,3.20
2015,08,30,19,03,11.30
2015,08,30,19,04,4.80
2015,08,30,19,09,4.80
2015,08,30,19,10,8.10
2015,08,30,19,11,14.50
2015,08,30,19,12,6.40
2015,08,30,19,14,9.60
2015,08,30,19,15,9.60
2015,08,30,19,16,1.60
2015,08,30,19,17,3.20
2015,08,30,19,18,1.60
2015,08,30,19,19,3.20
2015,08,30,19,20,3.20
2015,08,30,19,21,4.80
2015,08,30,19,22,12.90
2015,08,30,19,23,12.90
2015,08,30,19,24,6.40
2015,08,30,19,25,6.40
2015,08,30,19,26,8.10
2015,08,30,19,27,8.10
2015,08,30,19,28,3.20
2015,08,30,19,29,3.20
2015,08,30,19,31,9.60
2015,08,30,19,32,1.60
2015,08,30,19,34,14.50
2015,08,30,19,35,8.10
2015,08,30,19,36,14.50
2015,08,30,19,37,9.60
2015,08,30,19,38,8.10
2015,08,30,19,39,1.60
2015,08,30,19,40,4.80
2015,08,30,19,41,8.10
2015,08,30,19,42,8.10
2015,08,30,19,43,9.60
2015,08,30,19,44,11.30
2015,08,30,19,45,14.50
2015,08,30,19,46,20.90
2015,08,30,19,47,11.30
2015,08,30,19,48,8.10
2015,08,30,19,49,8.10
2015,08,30,19,50,9.60
2015,08,30,19,51,11.30
2015,08,30,19,52,11.30
2015,08,30,19,53,14.50
2015,08,30,19,54,14.50
2015,08,30,19,55,9.60
2015,08,30,19,56,6.40
2015,08,30,19,57,8.10
2015,08,30,19,58,11.30
2015,08,30,19,59,11.30
2015,08,30,20,00,9.60
2015,08,30,20,01,1.60
2015,08,30,20,02,12.90
2015,08,30,20,03,19.30
2015,08,30,20,04,20.90
2015,08,30,20,05,22.50
2015,08,30,20,06,22.50
2015,08,30,20,07,20.90
2015,08,30,20,08,11.30
2015,08,30,20,09,11.30
2015,08,30,20,10,16.10
2015,08,30,20,11,19.30
2015,08,30,20,12,9.60
2015,08,30,20,13,14.50
2015,08,30,20,14,16.10
2015,08,30,20,15,11.30
2015,08,30,20,16,12.90
2015,08,30,20,17,4.80
2015,08,30,20,18,11.30
2015,08,30,20,19,17.70
2015,08,30,20,20,16.10
2015,08,30,20,21,9.60
2015,08,30,20,22,11.30
2015,08,30,20,23,9.60
2015,08,30,20,24,11.30
2015,08,30,20,25,11.30
2015,08,30,20,26,12.90
2015,08,30,20,27,8.10
2015,08,30,20,29,8.10
2015,08,30,20,30,12.90
2015,08,30,20,31,9.60
2015,08,30,20,32,9.60
2015,08,30,20,33,6.40
2015,08,30,20,34,17.70
2015,08,30,20,35,17.70
2015,08,30,20,36,9.60
2015,08,30,20,37,3.20
2015,08,30,20,39,4.80
2015,08,30,20,40,8.10
2015,08,30,20,43,4.80
2015,08,30,20,44,6.40
2015,08,30,20,46,6.40
2015,08,30,20,47,6.40
2015,08,30,20,50,4.80
2015,08,30,20,52,4.80
2015,08,30,20,53,4.80
2015,08,30,20,54,19.30
2015,08,30,20,55,16.10
2015,08,30,20,56,9.60
2015,08,30,20,58,4.80
2015,08,30,20,59,6.40
2015,08,30,21,00,6.40
2015,08,30,21,01,8.10
2015,08,30,21,02,4.80
2015,08,30,21,03,8.10
2015,08,30,21,04,4.80
2015,08,30,21,05,9.60
2015,08,30,21,06,6.40
2015,08,30,21,07,4.80
2015,08,30,21,13,1.60
2015,08,30,21,14,3.20
2015,08,30,21,15,16.10
2015,08,30,21,16,9.60
2015,08,30,21,17,3.20
2015,08,30,21,18,1.60
2015,08,30,21,19,4.80
2015,08,30,21,22,4.80
2015,08,30,21,25,4.80
2015,08,30,21,26,4.80
2015,08,30,21,28,1.60
2015,08,30,21,30,4.80
2015,08,30,21,31,6.40
2015,08,30,21,32,4.80
2015,08,30,21,33,3.20
2015,08,30,21,36,6.40
2015,08,30,21,37,9.60
2015,08,30,21,38,8.10
2015,08,30,21,39,4.80
2015,08,30,21,44,8.10
2015,08,30,21,45,8.10
2015,08,30,21,47,6.40
2015,08,30,21,48,8.10
2015,08,30,21,49,11.30
2015,08,30,21,50,8.10
2015,08,30,21,51,8.10
2015,08,30,21,52,6.40
2015,08,30,21,53,4.80
2015,08,30,21,54,4.80
2015,08,30,21,55,6.40
2015,08,30,21,56,8.10
2015,08,30,21,57,11.30
2015,08,30,21,59,6.40
2015,08,30,22,00,1.60
2015,08,30,22,01,8.10